TimeCST,TemperatureF,Dew PointF,Humidity,Sea Level PressureIn,VisibilityMPH,Wind Direction,Wind SpeedMPH,Gust SpeedMPH,PrecipitationIn,Events,Conditions,WindDirDegrees,DateUTC
12:15 AM,58.3,56.3,93,30.04,1.5,Calm,Calm,-,N/A,,Unknown,0,2013-02-06 06:15:00
12:35 AM,58.8,57.0,94,30.04,2.5,Calm,Calm,-,N/A,,Mostly Cloudy,0,2013-02-06 06:35:00
1:15 AM,59.2,57.6,94,30.04,2.5,NE,4.6,-,N/A,,Overcast,40,2013-02-06 07:15:00
1:35 AM,59.0,57.2,94,30.04,3.0,ENE,4.6,-,N/A,,Overcast,60,2013-02-06 07:35:00
1:55 AM,58.3,56.7,94,30.05,4.0,NE,3.5,-,N/A,,Overcast,50,2013-02-06 07:55:00
2:15 AM,57.7,56.3,95,30.04,3.0,ENE,4.6,-,N/A,,Overcast,60,2013-02-06 08:15:00
2:35 AM,58.1,56.3,94,30.04,2.5,ENE,3.5,-,N/A,,Overcast,60,2013-02-06 08:35:00
2:55 AM,57.7,56.3,95,30.05,3.0,Calm,Calm,-,N/A,,Mostly Cloudy,0,2013-02-06 08:55:00
3:15 AM,57.2,55.4,94,30.05,2.5,Calm,Calm,-,N/A,,Scattered Clouds,0,2013-02-06 09:15:00
3:35 AM,56.8,55.2,94,30.04,2.5,ENE,4.6,-,N/A,,Clear,70,2013-02-06 09:35:00
3:55 AM,57.4,55.6,94,30.04,3.0,NE,3.5,-,0.01,,Clear,50,2013-02-06 09:55:00
4:15 AM,56.7,55.2,95,30.04,3.0,NE,3.5,-,N/A,,Clear,40,2013-02-06 10:15:00
4:35 AM,56.7,55.0,94,30.05,2.0,NE,4.6,-,N/A,,Overcast,40,2013-02-06 10:35:00
4:55 AM,56.7,55.0,94,30.05,1.8,NE,4.6,-,N/A,,Overcast,40,2013-02-06 10:55:00
5:15 AM,56.7,55.4,96,30.06,1.5,Calm,Calm,-,N/A,,Overcast,0,2013-02-06 11:15:00
5:35 AM,56.8,55.4,95,30.07,2.5,Calm,Calm,-,N/A,,Mostly Cloudy,0,2013-02-06 11:35:00
5:55 AM,56.7,55.4,96,30.07,2.5,Calm,Calm,-,N/A,,Clear,0,2013-02-06 11:55:00
6:00 AM,57.2,55.4,94,30.07,4.0,Calm,Calm,-,N/A,,Clear,0,2013-02-06 12:00:00
6:50 AM,57.2,55.4,94,30.08,2.0,Calm,Calm,-,N/A,,Mostly Cloudy,0,2013-02-06 12:50:00
7:50 AM,57.2,55.4,94,30.06,2.0,ENE,4.6,-,N/A,,Mist,60,2013-02-06 13:50:00
8:50 AM,59.0,57.2,94,-9999,-9999.0,North,-9999.0,-,N/A,,Overcast,0,2013-02-06 14:50:00
9:50 AM,60.8,57.2,88,30.10,3.0,Calm,Calm,-,N/A,,Overcast,0,2013-02-06 15:50:00
2:50 PM,64.4,60.8,88,30.01,7.0,Calm,Calm,-,N/A,,Overcast,0,2013-02-06 20:50:00
4:55 PM,62.6,60.8,94,30.00,2.5,NE,4.6,-,N/A,Rain,Rain,40,2013-02-06 22:55:00
6:58 PM,62.6,60.8,94,29.96,4.0,ENE,8.1,16.1,N/A,Rain,Light Rain,70,2013-02-07 00:58:00
7:53 PM,62.6,60.8,94,29.96,3.0,East,15.0,20.7,N/A,Rain,Light Rain,90,2013-02-07 01:53:00
8:50 PM,62.6,59.0,88,29.97,3.0,East,12.7,-,N/A,Rain,Rain,100,2013-02-07 02:50:00
9:50 PM,62.6,59.0,88,29.97,3.0,East,12.7,-,N/A,Rain,Rain,100,2013-02-07 03:50:00
10:15 PM,60.4,58.1,92,29.95,5.0,East,12.7,19.6,N/A,,Overcast,90,2013-02-07 04:15:00
10:35 PM,60.3,57.7,91,29.95,7.0,East,15.0,-,N/A,,Overcast,90,2013-02-07 04:35:00
10:55 PM,60.1,57.7,92,29.94,7.0,East,13.8,17.3,N/A,,Overcast,90,2013-02-07 04:55:00
11:15 PM,60.1,57.6,91,29.93,10.0,East,11.5,16.1,N/A,,Overcast,90,2013-02-07 05:15:00
11:35 PM,60.1,57.2,90,29.92,10.0,East,12.7,18.4,N/A,,Scattered Clouds,90,2013-02-07 05:35:00
11:55 PM,59.9,56.8,90,29.91,10.0,East,10.4,-,N/A,,Scattered Clouds,90,2013-02-07 05:55:00